Voltar ao catálogo

STARLINK-30216

AtivoComunicaçõesVLEO
NORAD 57451·PAYLOAD·🇺🇸 United States

Lançado Jul 24, 2023 de Cape Canaveral Space Force Station

Loading…

Próximas Passagens (próximas 24 horas)

TLE

AtualizadoSource: CelesTrak SupGP

Época: Sep 14, 2026, 20:43 UTC

1 57451C 23105X   26257.86368056  .00008092  00000+0  29318-3 0  2578
2 57451  43.0029 271.0759 0001720 276.2332 262.9772 15.27563271    13

Acompanhe STARLINK-30216 em tempo real com AllMySat

Download on the App Store